Weather History for Meridian, MS

Change the Weather History Date:

Saturday, February 16, 2013

  Actual Average Record
Temperature  
Mean Temperature 39 °F 49 °F  
Max Temperature 49 °F 61 °F 82 °F (1995)
Min Temperature 28 °F 37 °F 16 °F (1991)
Degree Days  
Heating Degree Days 26 16  
Month to date heating degree days 256 285  
Since 1 July heating degree days 1689 1922  
Cooling Degree Days 0 0  
Month to date cooling degree days 0 0  
Year to date cooling degree days 16 3  
Moisture  
Dew Point 23 °F    
Average Humidity 53    
Maximum Humidity 82    
Minimum Humidity 24    
Precipitation  
Precipitation 0.00 in 0.20 in 4.39 in (1903)
Month to date precipitation 6.73 3.26  
Year to date precipitation 16.49 8.39  
Sea Level Pressure  
Sea Level Pressure 30.22 in    
Wind  
Wind Speed 10 mph (NW)    
Max Wind Speed 23 mph    
Max Gust Speed 33 mph    
Visibility 10 miles    
Events      
T = Trace of Precipitation, MM = Missing Value Source: NWS Daily Summary

Daily Weather History Graph

Daily Weather History Graph

Search for Another Location

Airport:

Trip Planner

Search our weather history database for the weather conditions in past years. The results will help you decide how hot, cold, wet, or windy it might be!

Date:

Astronomy

Feb. 16, 2013 Rise Set
Actual Time 6:36 AM CST 5:42 PM CST
Civil Twilight 6:11 AM CST 6:07 PM CST
Nautical Twilight 5:42 AM CST 6:35 PM CST
Astronomical Twilight 5:14 AM CST 7:04 PM CST
Moon 10:14 AM CST (2/16) No Moon Set
Length of Visible Light 11h 55m
Length of Day
11h 05m
Waxing Crescent, 39% of the Moon is Illuminated
Feb 16
Waxing Crescent
Feb 17
First Quarter
Feb 25
Full
Mar 4
Last Quarter
Mar 11
New

Hourly Weather History & Observations

Time (CST) Temp. Windchill Dew Point Humidity Pressure Visibility Wind Dir Wind Speed Gust Speed Precip Events Conditions
12:58 AM 46.0 °F 41.4 °F 30.0 °F 54% 30.13 in 10.0 mi North 9.2 mph - N/A   Overcast
1:58 AM 44.1 °F 39.5 °F 28.9 °F 55% 30.14 in 10.0 mi NW 8.1 mph - N/A   Mostly Cloudy
2:58 AM 43.0 °F 38.2 °F 30.0 °F 60% 30.14 in 10.0 mi NNW 8.1 mph - N/A   Overcast
3:58 AM 42.1 °F 38.4 °F 30.0 °F 62% 30.14 in 10.0 mi NW 5.8 mph - N/A   Scattered Clouds
4:58 AM 39.0 °F 34.0 °F 30.9 °F 73% 30.15 in 10.0 mi NW 6.9 mph - N/A   Clear
5:58 AM 36.0 °F 30.3 °F 30.0 °F 79% 30.18 in 10.0 mi NW 6.9 mph - N/A   Clear
6:58 AM 35.1 °F 29.3 °F 28.9 °F 78% 30.19 in 10.0 mi WNW 6.9 mph - N/A   Clear
7:58 AM 37.0 °F 31.0 °F 28.9 °F 73% 30.21 in 10.0 mi NW 8.1 mph - N/A   Partly Cloudy
8:58 AM 41.0 °F 34.7 °F 28.0 °F 60% 30.23 in 10.0 mi North 10.4 mph - N/A   Clear
9:58 AM 43.0 °F 35.7 °F 25.0 °F 49% 30.24 in 10.0 mi North 15.0 mph 19.6 mph N/A   Partly Cloudy
10:58 AM 45.0 °F 37.9 °F 18.0 °F 34% 30.24 in 10.0 mi NNW 16.1 mph 25.3 mph N/A   Partly Cloudy
11:58 AM 46.0 °F 39.0 °F 17.1 °F 31% 30.22 in 10.0 mi NW 17.3 mph 24.2 mph N/A   Clear
12:58 PM 46.9 °F - 18.0 °F 32% 30.20 in 10.0 mi West 16.1 mph 23.0 mph N/A   Mostly Cloudy
1:58 PM 48.0 °F - 14.0 °F 26% 30.18 in 10.0 mi WNW 21.9 mph 27.6 mph N/A   Overcast
2:58 PM 46.9 °F - 12.9 °F 25% 30.18 in 10.0 mi West 18.4 mph 26.5 mph N/A   Scattered Clouds
3:58 PM 43.0 °F 35.4 °F 12.9 °F 30% 30.19 in 10.0 mi NW 16.1 mph 23.0 mph N/A   Partly Cloudy
4:58 PM 43.0 °F 36.0 °F 15.1 °F 32% 30.21 in 10.0 mi NNW 13.8 mph - N/A   Mostly Cloudy
5:58 PM 39.9 °F 33.4 °F 16.0 °F 38% 30.23 in 10.0 mi NW 10.4 mph - N/A   Clear
6:58 PM 37.4 °F 32.1 °F 19.4 °F 48% 30.24 in 10.0 mi NW 6.9 mph - N/A   Clear
7:58 PM 35.1 °F 30.1 °F 21.0 °F 57% 30.27 in 10.0 mi NNW 5.8 mph - N/A   Clear
8:58 PM 35.6 °F 29.9 °F 21.2 °F 56% 30.29 in 10.0 mi NNW 6.9 mph - N/A   Clear
9:58 PM 30.9 °F - 24.1 °F 76% 30.30 in 10.0 mi Calm Calm - N/A   Clear
10:58 PM 30.0 °F - 24.1 °F 79% 30.30 in 10.0 mi Calm Calm - N/A   Clear
11:58 PM 28.4 °F - 24.8 °F 86% 30.30 in 10.0 mi Calm Calm - N/A   Clear